Weather History for Ord, NE

Change the Weather History Date:

Wednesday, December 5, 2012

  Actual Average Record
Temperature  
Mean Temperature 42 °F 27 °F  
Max Temperature 59 °F 39 °F 59 °F (2012)
Min Temperature 24 °F 15 °F -11 °F (2011)
Degree Days  
Heating Degree Days 23    
Month to date heating degree days 112  
Since 1 July heating degree days 1638  
Cooling Degree Days 0    
Month to date cooling degree days 0  
Year to date cooling degree days 1220  
Moisture  
Dew Point 20 °F    
Average Humidity 50    
Maximum Humidity 75    
Minimum Humidity 24    
Precipitation  
Precipitation 0.00 in 0.04 in 2.12 in (1913)
Month to date precipitation 0.00 0.23  
Year to date precipitation 11.49 24.58  
Sea Level Pressure  
Sea Level Pressure 29.99 in    
Wind  
Wind Speed 13 mph (SSE)    
Max Wind Speed 28 mph    
Max Gust Speed 36 mph    
Visibility 10 miles    
Events      
T = Trace of Precipitation, MM = Missing Value Source: NWS Daily Summary

Daily Weather History Graph

Daily Weather History Graph

Search for Another Location

Airport:

Trip Planner

Search our weather history database for the weather conditions in past years. The results will help you decide how hot, cold, wet, or windy it might be!

Date:

Astronomy

Dec. 05, 2012 Rise Set
Actual Time 7:47 AM CST 5:05 PM CST
Civil Twilight 7:16 AM CST 5:36 PM CST
Nautical Twilight 6:41 AM CST 6:11 PM CST
Astronomical Twilight 6:08 AM CST 6:44 PM CST
Moon No Moon Rise 12:08 PM CST (12/5)
Length of Visible Light 10h 20m
Length of Day
9h 17m
Waning Gibbous, 59% of the Moon is Illuminated
Dec 5
Waning Gibbous
Dec 6
Last Quarter
Dec 13
New
Dec 19
First Quarter
Dec 28
Full

Hourly Weather History & Observations

Time (CST) Temp. Windchill Dew Point Humidity Pressure Visibility Wind Dir Wind Speed Gust Speed Precip Events Conditions
12:53 AM 26.1 °F 21.9 °F 16.0 °F 66% 30.23 in 10.0 mi SE 3.5 mph - N/A   Clear
1:53 AM 30.0 °F 24.1 °F 18.0 °F 61% 30.21 in 10.0 mi ESE 5.8 mph - N/A   Clear
2:53 AM 27.0 °F 20.5 °F 19.0 °F 72% 30.20 in 10.0 mi ESE 5.8 mph - N/A   Clear
3:53 AM 30.0 °F 24.1 °F 18.0 °F 61% 30.19 in 10.0 mi SE 5.8 mph - N/A   Clear
4:53 AM 28.0 °F 21.7 °F 18.0 °F 66% 30.18 in 10.0 mi SE 5.8 mph - N/A   Clear
5:53 AM 30.0 °F 25.2 °F 18.0 °F 61% 30.17 in 10.0 mi East 4.6 mph - N/A   Clear
6:53 AM 36.0 °F 27.5 °F 17.1 °F 46% 30.13 in 10.0 mi South 12.7 mph - N/A   Clear
8:53 AM 39.9 °F 33.4 °F 16.0 °F 38% 30.12 in 10.0 mi South 10.4 mph - N/A   Clear
9:53 AM 41.0 °F 33.9 °F 17.1 °F 38% 30.08 in 10.0 mi South 12.7 mph - N/A   Clear
10:53 AM 46.9 °F - 19.0 °F 33% 30.06 in 10.0 mi South 16.1 mph - N/A   Clear
11:53 AM 51.1 °F - 21.0 °F 31% 30.01 in 10.0 mi South 11.5 mph 20.7 mph N/A   Clear
12:53 PM 55.9 °F - 24.1 °F 29% 29.94 in 10.0 mi SSW 21.9 mph 29.9 mph N/A   Clear
1:53 PM 57.0 °F - 21.9 °F 26% 29.90 in 10.0 mi South 23.0 mph - N/A   Clear
2:53 PM 57.9 °F - 21.9 °F 25% 29.88 in 10.0 mi South 20.7 mph 29.9 mph N/A   Clear
3:53 PM 57.0 °F - 21.0 °F 25% 29.86 in 10.0 mi South 18.4 mph 23.0 mph N/A   Clear
4:53 PM 55.9 °F - 21.9 °F 27% 29.84 in 10.0 mi South 16.1 mph 26.5 mph N/A   Clear
5:53 PM 55.0 °F - 21.9 °F 28% 29.83 in 10.0 mi South 12.7 mph - N/A   Clear
6:53 PM 54.0 °F - 21.9 °F 29% 29.83 in 10.0 mi SSE 9.2 mph 18.4 mph N/A   Clear
7:53 PM 55.0 °F - 21.9 °F 28% 29.80 in 10.0 mi South 20.7 mph - N/A   Scattered Clouds
8:53 PM 55.0 °F - 21.9 °F 28% 29.81 in 10.0 mi South 16.1 mph - N/A   Scattered Clouds
9:53 PM 54.0 °F - 21.9 °F 29% 29.81 in 10.0 mi South 15.0 mph 20.7 mph N/A   Clear
10:53 PM 53.1 °F - 21.9 °F 30% 29.79 in 10.0 mi SSE 11.5 mph - N/A   Clear
11:53 PM 51.1 °F - 21.9 °F 32% 29.80 in 10.0 mi South 8.1 mph - N/A   Clear